Location: *
(45.9500°N, 9.0833°E)
Time: 00:12:50
(UTC+00:00)

Tiros 1 despin weight - Pass Details

Date: 29 June 2021
Orbit: 593 x 642 km, 48.2° (Epoch: 02 August)

Event Time Altitude Azimuth Distance (km) Brightness Sun altitude
Rises 04:43:48 0° 279° (W) 2,840 ? 9.4°
Reaches altitude 10° 04:46:07 10° 282° (WNW) 1,932 ? 9.8°
Maximum altitude 04:50:31 66° 5° (N) 649 ? 10.5°
Drops below altitude 10° 04:54:54 10° 88° (E) 1,922 ? 11.2°
Sets 04:57:12 0° 92° (E) 2,824 ? 11.5°
